Roanoke, VA

6:16 PM EST on November 12, 2019 (GMT -0500)
Roanoke Regional-Woodrum

Weather History for KROA - September, 2019

Change the Weather History Date:

Monday, September 23, 2019

  Actual Average Record
Temperature  
Mean Temperature 80 °F 65 °F  
Max Temperature 90 °F 76 °F 97 °F (1931)
Min Temperature 69 °F 55 °F 36 °F (1976)
Degree Days  
Heating Degree Days 0 3  
Month to date heating degree days 1 22  
Since 1 July heating degree days 1 23  
Cooling Degree Days 15 3  
Month to date cooling degree days 247 124  
Year to date cooling degree days 1610 1171  
Growing Degree Days 30 (Base 50)    
Moisture  
Dew Point 59 °F    
Average Humidity 51    
Maximum Humidity 70    
Minimum Humidity 32    
Precipitation  
Precipitation 0.00 in 0.11 in 2.32 in (1912)
Month to date precipitation 0.80 3.08  
Year to date precipitation 31.50 31.21  
Snow  
Snow 0.00 in - - ()
Month to date snowfall 0.0  
Since 1 July snowfall T  
Since 1 September snowfall 0.0  
Snow Depth 0.00 in    
Sea Level Pressure  
Sea Level Pressure 29.99 in    
Wind  
Wind Speed 7 mph (West)    
Max Wind Speed 15 mph    
Max Gust Speed 19 mph    
Visibility 10 miles    
Events      
T = Trace of Precipitation, MM = Missing Value Source: NWS Daily Summary

Daily Weather History Graph

Daily Weather History Graph

Search for Another Location

Airport or City:

Astronomy

Sep. 23, 2019 Rise Set
Actual Time 7:08 AM EDT 7:15 PM EDT
Civil Twilight 6:42 AM EDT 7:41 PM EDT
Nautical Twilight 6:11 AM EDT 8:12 PM EDT
Astronomical Twilight 5:41 AM EDT 8:42 PM EDT
Moon 12:58 AM EDT (9/23) 3:59 PM EDT (9/23)
Length of Visible Light 12h 59m
Length of Day
12h 07m
Waning Crescent, 33% of the Moon is Illuminated
Sep 23
Waning Crescent
Sep 28
New
Oct 5
First Quarter
Oct 13
Full
Oct 21
Last Quarter

Hourly Weather History & Observations

Time (EDT) Temp. Heat Index Dew Point Humidity Pressure Visibility Wind Dir Wind Speed Gust Speed Precip Events Conditions
12:54 AM 73.0 °F - 60.1 °F 64% 30.07 in 10.0 mi WSW 5.8 mph - N/A   Clear
1:54 AM 73.9 °F - 60.1 °F 62% 30.07 in 10.0 mi WSW 6.9 mph - N/A   Clear
2:54 AM 71.1 °F - 60.1 °F 68% 30.06 in 10.0 mi NNW 4.6 mph - N/A   Clear
3:54 AM 72.0 °F - 59.0 °F 64% 30.05 in 10.0 mi West 9.2 mph - N/A   Clear
4:54 AM 69.1 °F - 59.0 °F 70% 30.04 in 10.0 mi WNW 5.8 mph - N/A   Clear
5:54 AM 71.1 °F - 59.0 °F 66% 30.04 in 10.0 mi West 6.9 mph - N/A   Clear
6:54 AM 69.1 °F - 57.9 °F 68% 30.04 in 10.0 mi West 5.8 mph - N/A   Clear
7:54 AM 70.0 °F - 59.0 °F 68% 30.06 in 10.0 mi West 6.9 mph - N/A   Clear
8:54 AM 73.0 °F - 59.0 °F 61% 30.06 in 10.0 mi West 8.1 mph - N/A   Clear
9:54 AM 77.0 °F - 59.0 °F 54% 30.05 in 10.0 mi SW 8.1 mph - N/A   Clear
10:54 AM 82.0 °F 82.0 °F 57.9 °F 44% 30.04 in 10.0 mi West 8.1 mph - N/A   Clear
11:54 AM 82.9 °F 82.4 °F 57.0 °F 41% 30.01 in 10.0 mi SW 9.2 mph - N/A   Clear
12:54 PM 88.0 °F 86.1 °F 55.0 °F 32% 29.98 in 10.0 mi NNW 6.9 mph - N/A   Clear
1:54 PM 89.1 °F 87.3 °F 55.9 °F 32% 29.95 in 10.0 mi West 9.2 mph - N/A   Clear
2:54 PM 89.1 °F 87.7 °F 57.0 °F 34% 29.92 in 10.0 mi West 5.8 mph - N/A   Mostly Cloudy
3:54 PM 87.1 °F 85.9 °F 57.0 °F 36% 29.91 in 10.0 mi NW 11.5 mph - N/A   Overcast
4:54 PM 86.0 °F 85.0 °F 57.9 °F 38% 29.91 in 10.0 mi NNW 10.4 mph - N/A   Overcast
5:54 PM 84.0 °F 83.8 °F 59.0 °F 43% 29.91 in 10.0 mi NNW 6.9 mph - N/A   Overcast
6:54 PM 82.0 °F 82.1 °F 59.0 °F 45% 29.92 in 10.0 mi NNW 5.8 mph - N/A   Overcast
7:54 PM 80.1 °F 80.7 °F 59.0 °F 48% 29.93 in 10.0 mi Calm Calm - N/A   Mostly Cloudy
8:54 PM 80.1 °F 80.7 °F 59.0 °F 48% 29.93 in 10.0 mi WNW 3.5 mph - N/A   Mostly Cloudy
9:54 PM 79.0 °F - 61.0 °F 54% 29.93 in 10.0 mi West 13.8 mph 19.6 mph N/A   Mostly Cloudy
10:54 PM 75.0 °F - 63.0 °F 66% 29.93 in 10.0 mi West 10.4 mph - N/A   Scattered Clouds
11:54 PM 73.9 °F - 63.0 °F 68% 29.93 in 10.0 mi Variable 3.5 mph - N/A   Partly Cloudy